Notices

What's New in latest Release from April 7th, 2021:

- Updated Glossary, including Speed of Maximum Gust, and Total Hourly Precipitation

- Updated national and regional climate services offices contacts and prices information

- Addition of station inventory lists for 1981-2010, 1971-2000, and 1961-1990 Normals.

If you haven't already, please take our survey and provide feedback about our website: https://eccc.sondage-survey.ca/f/LanguageSelection.aspx?s=442ca660-fcf1-47c0-95a9-59707d6fd709

Hourly Data Report for November 21, 2020

SHEARWATER RCS
NOVA SCOTIA
Current Station Operator: ECCC - MSC

44°37'47.000" N
63°30'48.000" W
24.00 m
8205092
71264
AAW

Download Data

Hourly Data (November 2020)
Hourly Data Report for November 21, 2020
TIME
LST
Temp Definition
°C
Dew Point Definition
°C
Rel Hum Definition
%
Precip. Amount Definition
mm

Wind Dir Definition
10's deg

Wind Spd Definition
km/h
Visibility Definition
km
Stn Press Definition
kPa
Hmdx Definition


Wind Chill Definition


Weather Definition


00:00 9.9 8.5 91 0.0 22 15   101.60     LegendNANA
01:00 10.4 8.7 90 0.0 22 19   101.49     LegendNANA
02:00 10.2 8.7 90 0.0 23 15   101.46     LegendNANA
03:00 10.0 8.6 91 0.0 23 14   101.42     LegendNANA
04:00 9.9 8.4 91 0.0 23 14   101.42     LegendNANA
05:00 9.5 7.9 90 0.0 23 14   101.45     LegendNANA
06:00 9.1 7.3 89 0.0 23 12   101.48     LegendNANA
07:00 8.9 6.9 87 0.0 25 9   101.49     LegendNANA
08:00 8.6 6.7 88 0.0 24 7   101.56     LegendNANA
09:00 9.1 6.9 86 0.0 25 8   101.60     LegendNANA
10:00 11.1 7.0 76 0.0 26 8   101.60     LegendNANA
11:00 13.0 6.6 65 0.0 28 11   101.59     LegendNANA
12:00 14.0 6.5 60 0.0 27 8   101.54     LegendNANA
13:00 14.6 4.9 52 0.0 26 11   101.51     LegendNANA
14:00 14.8 2.4 43 0.0 26 15   101.53     LegendNANA
15:00 13.3 1.5 44 0.0 29 17   101.58     LegendNANA
16:00 11.5 2.5 54 0.0 32 19   101.70     LegendNANA
17:00 9.9 1.3 55 0.0 32 18   101.82     LegendNANA
18:00 8.7 0.2 55 0.0 31 11   101.94     LegendNANA
19:00 7.6 -0.9 55 0.0 32 12   102.06     LegendNANA
20:00 6.1 -1.2 60 0.0 33 18   102.19     LegendNANA
21:00 4.8 -3.4 55 0.0 33 17   102.28     LegendNANA
22:00 3.7 -4.0 57 0.0 33 14   102.37     LegendNANA
23:00 2.7 -4.4 60 0.0 32 9   102.43     LegendNANA

Notes on Data Quality.

Legend

  • E = Estimated
  • M = Missing
  • NA = Not Available*
  • [empty] = Indicates an unobserved value
Date modified: